SWIFT

Last updated on Mon Feb 16 2026 00:02:40 GMT+0000 (Coordinated Universal Time)

1 28485U 04047A 26046.26679388 .00055952 00000+0 72097-3 0 9992 2 28485 20.5546 37.5700 0002674 77.8673 282.2070 15.57261431167763
UTC large
Height (km)
Speed (km/s)
/
Latitude / Longitude
Inclination (degrees)
Orbital Period (minutes)
Azimuth
Elevation
Range (km)
Doppler Factor

Next 0 passes for location: London (51.5072 / 0.1276)

Sorry there are no passes over London.